Regional Weather Roundup
Issued by NWS Boston, MA

Current Version | Previous Version | Text Only | Print | Product List | Glossary Off
Versions: 1 2 3 4 5 6 7 8 9 10 11 12 13 14 15 16 17 18 19 20 21 22 23 24 25 26 27 28 29 30 31 32 33 34 35 36 37 38 39 40 41 42 43 44 45 46 47 48 49 50
000 ASUS41 KBOX 272110 RWRBOX REGIONAL WEATHER ROUNDUP NATIONAL WEATHER SERVICE TAUNTON MA 400 PM EST THU NOV 27 2014 NOTE: "FAIR" INDICATES FEW OR NO CLOUDS BELOW 12,000 FEET WITH NO SIGNIFICANT WEATHER AND/OR OBSTRUCTIONS TO VISIBILITY. THE FOLLOWING OBSERVATION LOCATIONS DO NOT REPORT PRESENT WEATHER...PROVINCETOWN... SMITHFIELD...BLOCK ISLAND...KEENE...AND OXFORD. MAZALL-272200- EASTERN MASSACHUSETTS CITY SKY/WX TMP DP RH WIND PRES REMARKS BOSTON CLOUDY 37 30 75 NW8 29.97R WCI 31 BEVERLY CLOUDY 35 29 78 N6 29.96R WCI 30 LAWRENCE CLOUDY 33 28 81 NW6 29.99R WCI 28 BEDFORD CLOUDY 34 30 85 NW3 29.96R BLUE HILL N/A 33 30 88 NW5 29.93R WCI 29 NORWOOD CLOUDY 36 30 79 NW5 29.97R MARSHFIELD CLOUDY N/A N/A N/A NW6 29.97R PLYMOUTH CLOUDY 38 31 76 CALM 29.95R TAUNTON CLOUDY 40 29 64 N3 29.95R NEW BEDFORD CLOUDY 39 31 72 CALM 29.94S $$ MAZALL-272200- CAPE COD AND THE ISLANDS CITY SKY/WX TMP DP RH WIND PRES REMARKS FALMOUTH CLOUDY 39 32 75 CALM 29.95R HYANNIS LGT RAIN 39 33 79 CALM 29.94S CHATHAM CLOUDY 39 34 82 CALM 29.96R PROVINCETOWN CLOUDY 39 30 70 NW7 29.96R NANTUCKET CLOUDY 40 32 73 NE5 29.95S MARTHAS VNYRD CLOUDY 40 29 64 N3 29.95R $$ MAZALL-272200- CENTRAL AND WESTERN MASSACHUSETTS CITY SKY/WX TMP DP RH WIND PRES REMARKS WORCESTER CLOUDY 30 26 85 N8 29.93R WCI 22 FITCHBURG CLOUDY 33 25 72 N5 29.97R WCI 29 ORANGE N/A 31 25 78 N7 29.96R WCI 24 SPRINGFIELD CLOUDY 33 28 85 NE7 29.97R WCI 26 WESTFIELD CLOUDY 34 27 75 NW8 29.97R WCI 27 NORTH ADAMS CLOUDY 28 24 85 W6 29.97S WCI 22 PITTSFIELD CLOUDY 27 23 85 NW5 29.93R WCI 22 $$ RIZALL-272200- RHODE ISLAND CITY SKY/WX TMP DP RH WIND PRES REMARKS PROVIDENCE CLOUDY 37 31 78 N9 29.96S WCI 30 NEWPORT CLOUDY 40 31 70 NW5 29.95R BLOCK ISLAND CLOUDY 39 32 75 CALM 29.94S SMITHFIELD CLOUDY 34 25 69 NW6 29.94S WCI 29 WESTERLY CLOUDY 38 33 82 N6 29.96R $$ CTZALL-272200- CONNECTICUT CITY SKY/WX TMP DP RH WIND PRES REMARKS BRADLEY INTL CLOUDY 35 27 72 N6 29.97R WCI 30 HARTFORD FLURRIES 35 28 75 VRB6 29.99R WCI 30 BRIDGEPORT CLOUDY 37 30 75 N8 29.98S WCI 31 DANBURY CLOUDY 34 26 72 N7 29.98S WCI 28 GROTON CLOUDY 36 31 82 NW7 29.96R WCI 30 NEW HAVEN CLOUDY 38 31 76 N7 29.98R CHESTER LGT SNOW 34 32 93 NW5 29.97R WCI 30 MERIDEN FLURRIES 34 30 85 N5 29.98S WCI 30 WILLIMANTIC CLOUDY 36 28 73 N6 29.97R WCI 31 OXFORD CLOUDY 30 25 80 N5 29.97R WCI 25 $$ MEZ002-015-021-024-NHZ003-005-008-011-012-014-VTZ005-008-272200- NORTHERN NEW ENGLAND CITY SKY/WX TMP DP RH WIND PRES REMARKS PORTLAND ME MOCLDY 36 26 67 CALM 29.97R BANGOR ME CLOUDY 30 23 75 NW12 29.96R WCI 20 CONCORD NH NOT AVBL MANCHESTER NH CLOUDY 32 25 75 NW7 29.95R WCI 26 NASHUA NH CLOUDY 33 28 82 CALM 29.98R PORTSMOUTH NH CLOUDY 34 29 83 W5 29.95R WCI 29 JAFFREY NH N/A 28 23 81 VRB5 29.93R WCI 23 KEENE NH CLOUDY 30 27 86 N5 29.96R WCI 25 BURLINGTON VT CLOUDY 29 20 69 NE6 30.03R WCI 23 MT. WASHINGTON MOCLDY 12 5 73 N25 N/A WCI -8 $$ NYZ052-076-272200- EASTERN NEW YORK CITY SKY/WX TMP DP RH WIND PRES REMARKS ALBANY LGT SNOW 30 26 85 N5 30.02R FOG WCI 25 NEW YORK CITY CLOUDY 37 32 82 N8 29.99R WCI 31 $$ ANZALL-272200- MARINE OBSERVATIONS STATION/POSITION TIME TEMP WIND PRES VSBY WAVE AIR SEA DIR/SP/G HT/PER (UTC) (F) (DEG/KT/KT) (MB) (MI) (FT/S) BOSTON BUOY 2050 37 49 330/ 8/ 10 1014.6R 7/ 9 BUZZARDS BAY 2000 10/ 2/ 4 1014.6R NANTUCKET SOUND 2050 40 47 40/ 4/ 6 1014.2R 2/10 MASS BAY-STELLWA 2004 36 50 320/ 8/ 12 N/A 1 7/8 7/11 ISLE OF SHOALS 2000 35 320/ 10/ 12 1013.5R S OF BLOCK IS 2008 55 N/A 6/11 $$ ......................KEY......................... SKY/WX - SKY CONDITION/PRESENT WEATHER TMP - TEMPERATURE IN FAHRENHEIT DWPT - DEWPOINT IN FAHRENHEIT RH - RELATIVE HUMIDITY IN PERCENT WIND - DIRECTION AND SPEED IN MPH PRES - MEAN SEA LEVEL PRESSURE IN INCHES OF HG WCI - WIND CHILL INDEX VSB - VISIBILITY IN MILES HX - HEAT INDEX TC - TEMPERATURE IN CELSIUS VRB - VARIABLE WIND DIRECTION N/A - NOT AVAILABLE

USA.gov is the U.S. government's official web portal to all federal, state and local government web resources and services.